Wind_Speed
4 6 7 7 9 11 12 11 9 6 8 12 11 9 10 9 7 8 6 8 14 10 11 14 11 10 5 5 10 11 13 14 13 13 12 12 12 12 13 13 14 14 13 14 17 19 20 21 21 20 20 19 20 21 23 25 26 27 27 26 26 27 28 27 26 23 20 18 17 18 19 19 19 20 19 18 19 20 19 17 16 16 17 15 12 9
4 8 9 9 10 11 12 10 7 5 5 9 10 8 9 8 5 7 7 9 12 10 9 8 9 10 5 4 9 11 13 15 16 16 15 15 14 12 14 15 15 13 11 12 15 18 20 21 22 21 20 21 21 21 23 25 26 28 28 27 28 27 28 28 27 27 25 24 23 21 22 20 18 19 19 19 20 21 19 18 16 16 15 12 9 6
6 9 9 8 7 7 6 6 8 7 7 7 7 7 7 6 3 3 6 8 10 9 7 6 10 11 4 4 9 13 15 14 15 16 14 15 14 13 14 15 14 13 12 13 15 18 21 22 22 21 20 22 23 22 23 25 27 28 28 28 28 28 28 29 28 28 28 27 25 23 22 21 18 19 19 19 20 20 19 17 15 14 13 11 8 7
6 7 8 7 6 8 6 6 9 7 6 6 6 7 6 6 6 5 7 9 10 6 3 5 8 8 4 5 9 13 14 12 12 14 13 13 14 15 16 14 14 15 14 15 16 17 20 22 22 22 22 23 22 21 23 25 27 28 30 30 30 29 29 29 29 28 28 27 25 23 23 23 20 19 20 20 20 19 17 16 14 13 13 11 9 9
5 2 6 9 8 11 9 8 10 7 6 5 6 8 5 7 8 5 5 8 7 3 3 6 6 8 7 9 10 11 13 13 12 14 14 14 15 14 14 14 14 16 15 15 16 16 18 21 23 23 23 22 22 22 23 26 28 30 32 32 31 30 29 29 29 28 28 26 24 22 21 20 19 18 18 18 18 17 15 15 15 14 14 12 11 11
6 0 7 12 9 11 10 9 11 10 7 5 7 9 7 10 8 5 10 9 5 4 7 9 6 7 7 11 12 8 11 15 13 14 16 15 15 15 14 14 14 15 15 15 16 16 17 20 22 22 23 23 23 24 26 29 32 33 34 34 33 32 31 30 29 28 28 27 25 24 20 16 15 16 16 16 17 16 16 16 16 15 13 13 12 13
4 3 7 11 12 12 11 9 11 11 8 6 7 9 9 9 9 11 13 10 5 4 7 12 11 7 4 9 12 10 11 15 14 15 18 15 15 16 15 15 15 15 15 15 16 16 16 18 20 21 23 25 26 27 29 31 33 35 35 35 34 34 33 32 31 30 29 28 27 27 24 20 18 17 17 20 20 19 19 17 16 15 13 13 14 15
4 6 5 8 11 12 11 9 10 11 9 5 5 11 12 10 11 14 13 10 5 2 4 10 9 6 6 5 7 11 12 13 14 17 18 17 18 18 18 17 16 16 16 14 15 16 16 18 20 22 24 27 28 26 28 31 33 35 36 36 35 35 35 34 33 32 30 29 29 29 26 23 22 20 19 22 22 20 19 16 15 16 14 14 15 16
4 9 8 9 9 9 9 8 10 13 10 3 4 9 12 11 12 14 12 8 4 2 4 7 5 4 7 2 4 9 11 12 17 19 20 20 20 20 19 20 19 18 17 16 16 16 17 19 22 23 24 27 27 25 29 34 34 35 36 35 35 35 35 35 34 33 32 31 31 31 29 26 25 24 21 22 22 20 19 17 16 16 15 13 14 15
3 7 9 11 9 7 8 5 10 15 8 3 7 7 5 5 7 8 8 5 4 5 6 8 9 6 6 3 5 6 8 13 16 17 19 20 20 20 19 20 20 17 15 16 16 15 17 21 24 24 23 25 26 28 34 35 34 35 35 35 35 35 35 35 35 34 33 33 32 32 32 30 28 27 25 22 21 20 20 18 18 17 14 12 13 15
2 1 4 8 7 7 7 3 8 13 8 9 10 8 7 4 3 2 1 2 4 6 6 10 15 10 7 4 7 6 8 12 13 12 14 17 19 20 18 18 18 16 14 14 15 15 18 21 22 22 22 23 25 27 31 31 31 32 33 34 35 35 36 36 35 35 34 34 34 34 35 33 30 29 27 24 22 22 21 20 19 19 16 12 14 17
4 4 3 4 4 6 7 5 6 5 6 10 8 7 6 4 3 3 2 2 5 6 5 8 13 12 10 6 6 8 11 11 12 12 14 18 20 20 18 18 18 16 15 14 14 14 16 17 18 20 22 23 22 23 26 28 28 29 30 33 34 35 36 36 35 35 35 35 35 35 35 34 33 31 29 26 25 24 23 21 21 20 19 17 17 19
7 8 3 3 4 8 9 7 5 3 5 8 6 8 7 3 4 4 3 4 5 5 1 4 9 9 9 9 7 8 11 13 13 14 14 16 17 18 18 18 16 15 16 15 14 14 14 14 16 20 22 21 21 22 25 26 25 26 30 33 34 35 36 36 35 35 35 35 36 36 36 35 34 32 30 28 26 26 25 23 23 23 22 21 21 21
6 5 4 7 4 7 12 10 7 6 6 9 8 9 8 6 6 6 3 1 3 4 0 4 8 6 5 8 11 13 17 17 13 14 14 9 9 12 15 16 15 14 15 15 14 15 15 14 16 20 21 21 22 24 25 26 26 27 30 33 35 36 37 37 36 36 36 36 37 37 37 36 34 32 31 29 28 27 26 24 24 24 24 24 23 23
9 6 7 11 4 6 13 12 8 7 7 9 8 7 7 6 5 5 4 4 4 2 2 5 6 6 4 2 6 12 14 12 9 12 12 8 6 8 11 14 15 16 16 14 14 16 16 16 19 21 21 22 24 26 26 26 26 28 32 35 37 36 36 37 37 37 37 37 37 37 37 36 35 33 32 31 29 28 26 25 25 26 25 24 23 22
10 7 5 7 4 7 11 8 6 8 7 7 5 7 8 6 5 3 2 3 3 1 2 5 4 4 3 5 7 8 8 9 9 10 11 11 10 9 10 14 16 16 16 15 15 17 16 17 20 21 21 23 24 25 25 26 29 32 34 37 39 38 38 37 37 38 38 38 38 38 38 37 36 34 33 33 30 27 25 25 26 26 25 24 22 21
7 6 4 4 4 7 10 8 8 8 6 4 5 8 4 3 5 4 1 1 1 4 4 4 4 3 2 7 9 7 8 10 10 8 11 12 11 11 11 13 15 15 16 16 16 16 16 17 19 22 23 24 25 26 26 30 36 38 37 37 38 37 37 37 39 39 38 38 39 39 39 37 36 35 34 33 30 26 25 25 26 26 24 23 22 20
5 5 6 9 11 10 7 7 10 10 6 4 7 8 5 2 2 2 3 3 3 8 4 4 7 6 3 4 3 3 7 11 11 10 10 8 11 13 13 13 15 16 17 16 16 15 15 16 19 23 25 26 28 29 30 35 39 38 38 38 36 36 38 38 38 39 39 40 40 39 38 37 36 36 34 33 30 26 25 26 27 26 25 24 22 20
5 5 4 9 13 10 5 6 10 10 5 1 4 9 6 3 4 2 4 5 5 7 4 4 7 6 5 5 3 5 7 9 11 8 8 10 12 13 13 14 15 15 15 15 15 14 14 15 19 23 25 26 28 29 31 34 33 31 33 35 36 38 41 40 38 38 40 41 41 39 37 37 37 36 34 33 30 27 26 27 28 27 25 24 22 21
5 7 4 5 6 6 6 7 10 10 6 0 3 7 3 3 5 4 4 4 6 7 4 5 5 4 6 5 6 10 9 8 11 7 7 11 13 13 12 13 13 14 13 14 15 15 15 17 21 25 26 27 29 29 30 29 29 30 31 32 34 34 36 38 39 40 42 42 41 38 37 36 36 36 35 33 31 28 28 28 28 27 25 24 23 21
5 6 5 3 2 4 6 8 11 12 9 5 7 8 4 2 1 3 3 2 4 6 5 6 6 4 4 5 8 12 11 10 11 9 8 10 12 14 13 12 12 12 13 14 14 15 16 18 21 25 26 27 27 26 27 27 28 29 28 29 32 31 31 35 38 41 42 42 39 36 36 36 36 36 35 33 32 30 29 29 28 27 25 24 23 22
5 5 6 4 4 7 8 8 12 14 12 10 9 9 9 7 4 5 7 3 2 4 4 5 7 5 5 5 8 10 11 11 10 8 8 8 9 10 10 11 12 11 13 15 15 16 16 16 19 23 25 25 24 24 26 26 26 27 27 28 30 30 30 32 36 41 43 39 36 35 36 36 36 35 35 34 33 31 30 29 28 27 25 24 23 22
4 3 6 7 7 9 8 6 8 11 12 13 12 10 11 9 8 10 9 4 3 3 1 1 6 4 4 4 8 10 10 9 6 5 7 9 7 5 7 10 11 11 13 14 15 15 13 13 17 21 22 23 24 25 27 27 26 27 28 28 28 28 30 31 35 41 41 36 33 35 36 35 35 35 35 35 34 33 32 30 29 27 25 24 23 21
5 2 5 7 6 5 4 2 2 2 7 11 12 12 12 12 12 11 6 4 5 6 4 3 5 4 3 2 4 7 7 7 5 5 8 10 6 3 6 9 10 11 12 13 13 11 10 12 15 16 17 20 22 23 24 24 24 25 26 26 26 27 30 31 31 33 35 34 33 34 35 35 35 35 35 36 36 35 33 31 29 27 24 23 22 21
5 4 5 6 6 5 6 7 5 4 5 8 8 9 12 15 15 7 1 2 5 9 10 8 6 5 3 1 1 5 7 9 10 8 8 8 6 3 5 7 9 9 10 12 11 10 11 13 12 12 14 18 21 22 22 23 23 24 25 25 26 27 29 29 27 26 28 30 30 32 35 35 35 35 37 38 38 36 35 33 31 29 26 26 26 24
5 5 6 8 9 9 9 9 7 5 5 4 5 7 10 15 16 7 2 5 7 6 9 9 6 4 2 1 3 4 6 9 12 10 7 7 8 6 6 7 8 9 11 12 12 11 11 11 11 12 13 17 20 21 22 22 23 23 23 24 26 26 26 26 25 24 24 25 28 33 36 36 37 37 39 41 40 38 37 35 33 31 30 29 29 26
2 3 9 11 10 10 10 8 6 6 7 7 9 11 11 13 14 10 6 8 5 4 6 8 6 6 6 6 6 7 8 9 11 10 8 8 8 7 7 7 7 7 9 11 10 10 10 11 12 13 14 17 20 20 21 22 23 22 22 23 25 23 22 23 23 23 24 25 28 34 38 39 40 40 40 42 40 38 38 37 35 33 32 30 29 26
2 5 11 14 13 14 14 13 10 11 13 13 14 15 15 15 16 15 12 8 6 5 8 8 6 9 10 9 9 10 9 9 10 10 9 7 6 6 6 6 7 8 9 10 11 12 12 12 13 13 14 17 18 18 18 19 19 19 20 22 23 22 21 22 23 26 28 29 31 36 39 40 40 39 38 38 38 38 39 38 37 35 32 29 28 28
3 7 10 13 15 16 18 17 12 12 14 15 16 17 17 17 18 17 16 11 8 8 11 8 8 11 10 9 11 11 11 12 11 9 7 4 3 5 7 9 10 11 12 13 13 13 13 12 13 13 14 15 16 18 18 18 18 19 20 21 21 22 22 22 25 28 30 32 35 38 39 38 36 36 34 35 38 40 39 38 38 37 33 30 29 28
2 5 6 10 14 16 18 17 12 12 14 14 16 17 17 19 20 20 19 16 14 13 12 9 11 12 11 11 11 10 9 9 6 4 4 5 7 8 10 12 12 12 14 14 14 13 13 13 13 13 12 13 16 18 19 18 18 19 21 21 20 22 22 24 28 30 31 34 37 38 37 36 35 33 31 35 39 40 39 39 40 37 34 33 31 27
2 2 2 5 9 12 14 14 13 14 15 16 16 16 15 16 18 18 17 14 13 12 9 7 9 9 8 8 7 4 2 2 4 6 8 8 8 9 11 12 12 13 14 13 12 12 11 11 12 12 12 14 17 18 18 18 17 18 20 20 21 22 23 25 29 32 33 35 37 36 35 35 33 31 32 36 38 39 40 41 42 41 37 34 31 28
3 1 1 3 5 7 8 11 13 15 16 18 19 18 15 13 12 13 11 9 11 10 8 7 6 6 6 6 6 5 3 4 8 10 9 8 8 11 12 12 12 12 12 11 11 11 12 12 13 13 13 15 17 18 18 17 16 17 19 20 22 23 23 26 30 32 34 35 35 35 35 33 30 29 31 33 36 39 39 37 37 38 38 34 30 28
4 2 2 0 4 5 3 5 8 9 10 12 15 17 16 13 11 11 9 10 11 11 9 8 7 7 7 5 6 7 8 9 10 9 7 7 8 11 12 12 12 12 12 12 12 12 14 14 13 13 14 15 17 18 19 19 19 21 24 25 26 26 25 28 30 31 33 33 33 34 34 30 26 26 29 31 35 38 34 28 28 30 33 34 31 26
5 4 3 1 3 4 2 2 3 5 7 8 8 13 18 18 17 15 12 12 14 12 7 6 7 8 7 6 8 11 11 8 6 5 4 4 6 8 9 8 8 10 11 12 12 12 12 10 9 11 13 14 17 19 22 25 26 27 28 28 27 27 28 29 30 30 31 30 31 31 29 26 24 24 26 27 30 31 27 26 29 28 26 28 29 27
4 6 3 1 3 3 1 2 4 6 6 4 1 4 11 16 18 18 16 14 13 13 10 7 8 8 8 9 9 9 7 3 1 3 3 3 5 7 7 5 5 8 10 10 10 10 9 9 9 10 12 15 20 23 25 26 25 23 23 25 25 26 28 29 28 28 27 25 25 24 23 23 23 23 26 27 27 25 24 27 32 29 25 25 27 29
2 6 4 1 3 2 1 3 4 4 4 3 2 3 3 5 8 12 14 11 10 12 12 11 11 10 7 7 6 3 3 4 3 2 2 2 4 6 7 8 9 10 9 9 10 11 11 12 13 14 16 19 21 21 21 23 21 18 18 21 23 24 26 26 24 22 20 18 19 20 21 22 22 22 27 30 28 26 26 28 31 31 29 27 25 25
2 4 4 3 2 2 2 3 3 5 5 3 2 2 2 2 4 6 9 9 9 11 12 12 12 9 5 5 4 4 6 5 3 1 1 1 4 5 5 6 9 9 8 7 9 10 11 13 14 16 18 19 18 18 18 20 20 18 17 18 20 22 23 22 19 17 16 16 17 19 20 21 22 24 27 29 28 27 28 30 30 30 28 25 23 22
3 3 3 3 2 1 3 3 3 6 6 3 2 1 3 4 5 4 5 6 6 9 11 12 11 9 6 6 6 7 7 6 6 4 1 1 1 2 3 5 8 9 9 8 8 9 10 10 11 13 14 14 13 15 16 18 19 18 16 15 16 17 17 15 14 14 15 15 16 19 19 20 23 27 28 27 26 27 30 31 28 24 23 22 22 22
5 1 2 4 4 2 3 4 4 5 4 1 3 6 7 7 6 3 5 6 6 10 11 11 11 10 9 9 9 10 8 7 7 4 2 2 3 4 6 8 8 9 9 9 9 11 11 12 13 13 13 11 10 11 13 15 15 14 12 10 11 12 11 11 11 12 13 14 15 18 19 20 23 28 29 27 26 28 31 31 26 21 19 20 21 20
5 2 1 5 5 2 2 4 4 4 2 4 7 11 12 7 2 4 7 5 4 7 9 10 10 9 8 9 10 9 7 6 4 4 5 6 7 7 7 9 10 10 12 13 13 14 14 15 15 14 12 11 11 11 14 15 13 11 9 8 8 8 8 9 10 11 13 13 14 18 19 20 25 28 26 26 27 28 29 26 22 18 17 18 19 19
4 3 1 4 4 2 2 4 5 3 1 6 11 15 13 5 4 7 6 2 1 2 5 7 8 8 7 8 8 5 2 1 5 7 8 10 12 11 9 10 11 13 14 16 17 18 17 16 16 15 13 13 13 14 15 15 13 10 9 8 7 6 7 9 10 12 13 13 14 17 18 20 24 23 21 24 28 29 26 20 16 16 17 17 17 17
3 3 2 1 3 2 1 3 6 3 2 9 16 14 7 3 5 4 1 3 3 1 4 4 5 6 6 5 5 5 6 8 9 8 8 9 12 13 12 12 13 15 16 17 17 17 17 15 15 15 14 12 13 13 13 14 13 10 8 7 6 7 8 9 11 12 13 13 14 16 17 19 20 19 19 23 28 29 26 18 12 14 16 16 15 15
5 5 3 1 1 1 1 2 6 4 3 13 17 9 1 1 3 1 1 3 3 5 7 7 7 7 6 7 9 9 10 11 10 9 9 9 10 12 12 12 13 13 13 14 13 14 17 15 13 13 12 11 11 11 11 11 12 10 8 7 7 8 9 9 10 12 12 13 14 15 16 18 19 19 21 25 28 29 26 17 12 14 16 16 15 14
3 4 3 3 3 1 1 1 3 4 5 11 11 5 4 7 6 2 1 4 6 6 7 9 9 9 9 11 12 11 12 12 10 9 11 10 10 11 10 10 10 10 10 12 12 13 17 15 12 12 13 11 11 11 9 9 10 9 8 8 9 9 9 10 11 11 12 13 14 15 16 17 19 20 22 26 29 28 23 17 15 17 17 17 16 14
3 2 3 3 3 3 2 0 3 5 6 8 7 6 7 8 5 2 5 7 7 6 7 8 10 10 10 12 13 13 12 12 11 11 11 11 10 11 11 11 11 12 12 13 14 14 15 13 11 12 12 10 10 10 10 9 9 9 8 8 9 9 10 11 11 11 11 12 14 15 16 17 18 20 22 26 28 27 22 18 18 18 17 17 16 13
5 4 2 1 3 4 4 1 2 4 6 8 9 8 8 8 7 5 7 9 8 8 9 9 10 11 11 11 13 13 12 12 13 12 12 11 11 10 10 10 10 10 11 12 13 13 12 12 12 12 11 9 7 8 8 8 8 7 7 8 9 9 10 11 12 12 12 12 14 15 16 17 18 19 21 23 24 23 20 19 20 18 16 15 13 11
5 8 6 1 6 4 3 4 2 4 7 8 8 8 8 9 8 7 8 8 8 9 10 11 11 12 12 12 13 12 12 12 12 11 10 10 10 10 10 10 8 9 9 9 10 11 10 10 10 10 10 8 6 6 7 7 6 6 8 9 9 10 11 11 12 12 12 13 14 15 16 18 18 18 19 20 20 19 18 18 19 17 16 15 12 9
4 7 6 1 5 1 0 6 8 7 7 7 6 6 7 9 9 9 9 9 10 12 13 12 12 12 12 12 12 12 13 12 11 10 9 8 8 8 8 8 8 8 9 8 7 8 8 8 8 8 8 7 7 6 6 6 6 7 9 10 10 10 12 12 12 12 12 12 13 14 16 18 18 18 18 18 18 17 15 15 15 15 14 14 12 10
5 5 6 3 3 1 2 3 10 12 5 5 5 5 6 7 9 9 11 13 14 14 14 14 14 12 12 12 12 13 13 11 10 10 10 9 8 8 8 8 8 8 8 7 6 6 7 7 7 6 5 5 6 6 6 6 7 8 10 10 11 12 12 12 12 11 11 12 13 14 15 16 17 17 16 14 15 15 13 13 14 12 11 12 13 14
4 3 5 4 3 3 2 5 5 9 5 4 1 4 6 7 8 9 12 15 14 13 13 15 15 14 14 13 12 13 12 10 9 10 11 10 9 9 9 8 8 8 8 7 6 6 6 5 5 4 4 5 6 7 7 7 8 9 9 10 12 14 13 13 12 11 11 12 12 13 13 13 13 13 13 12 13 13 12 11 12 12 11 13 14 15
4 4 5 4 3 2 1 2 1 3 3 5 4 3 3 6 9 10 10 12 12 11 12 13 13 13 13 12 12 12 11 9 8 9 11 10 9 10 10 10 9 8 8 6 4 4 4 3 3 3 5 6 8 8 8 8 9 10 10 12 14 15 14 13 12 10 10 11 11 12 13 13 12 12 14 14 13 12 11 10 9 9 10 11 12 12
Wind_Direction
184 189 199 197 183 179 183 192 193 180 190 192 193 210 206 196 188 168 132 147 172 191 215 215 233 242 220 176 188 192 194 200 201 199 199 198 197 198 198 201 204 208 209 202 203 205 206 208 208 208 208 208 209 210 212 214 215 217 217 215 216 219 221 221 221 218 214 214 216 220 225 228 232 236 238 243 248 252 254 258 262 260 260 262 264 267
195 207 203 193 183 179 184 186 166 147 184 193 192 204 213 207 188 167 153 149 169 197 219 221 251 256 244 197 194 194 200 205 204 202 203 201 199 200 202 205 206 207 205 199 201 204 206 209 209 209 208 207 208 209 211 212 215 217 217 217 218 219 220 221 222 221 221 222 222 223 225 227 230 234 239 245 249 252 255 256 255 254 255 255 253 245
204 217 200 183 181 171 168 177 170 166 174 186 196 203 210 198 144 143 167 154 162 199 218 202 237 248 235 213 205 202 208 213 210 206 206 203 201 203 205 206 207 204 200 200 203 204 207 209 209 208 208 209 209 208 210 212 216 217 217 219 220 220 221 223 224 225 226 228 228 228 229 230 231 236 241 246 249 252 254 255 253 253 250 243 236 223
199 217 194 167 164 164 150 172 173 165 177 184 190 204 207 170 176 201 187 170 166 188 202 178 233 253 222 215 217 213 215 218 219 214 213 209 207 209 208 206 205 203 202 202 205 206 205 206 207 207 208 209 209 208 208 210 213 216 218 221 221 221 223 224 226 227 228 230 231 232 234 235 236 240 244 245 246 248 249 249 249 249 245 238 230 217
208 214 168 157 172 182 167 167 173 171 187 198 200 208 195 160 191 211 148 156 160 150 141 155 238 259 211 215 223 212 214 220 221 216 217 217 216 218 216 212 208 205 205 203 204 205 202 203 204 205 206 207 208 208 208 209 213 217 220 223 223 223 224 226 228 227 227 228 229 230 232 234 236 239 242 240 239 239 238 240 244 245 241 236 228 216
227 150 153 163 177 191 179 174 185 186 184 202 216 216 200 175 177 141 133 147 164 207 194 174 235 259 196 213 225 198 202 218 218 217 220 218 217 221 220 217 214 211 209 206 206 204 201 201 201 202 203 204 208 210 211 213 217 220 222 224 224 224 225 228 229 228 226 224 224 224 221 218 220 225 227 226 228 232 235 240 244 244 238 232 225 216
224 161 168 174 173 184 192 192 190 189 190 204 202 199 202 184 163 150 155 166 184 217 195 186 221 254 195 211 217 194 202 216 214 219 223 218 215 217 218 217 214 212 211 208 210 208 204 201 199 201 202 204 209 211 212 215 218 221 222 223 223 224 225 228 228 227 225 222 221 222 219 214 212 214 219 225 230 235 239 244 245 242 235 227 220 214
179 166 183 189 180 184 196 198 186 188 200 200 167 179 187 180 169 165 169 182 190 126 157 189 217 262 252 231 196 191 206 218 219 223 224 220 217 216 216 217 214 212 210 206 208 207 206 202 200 201 201 205 209 208 209 214 217 220 221 222 223 223 225 226 227 226 224 221 220 221 220 218 218 218 222 230 235 237 239 241 240 238 234 223 216 213
156 185 191 187 190 196 198 189 171 182 203 199 147 175 181 181 179 176 182 190 172 151 187 195 198 247 251 249 137 187 206 220 224 223 223 221 218 217 215 214 214 214 210 207 207 205 205 204 203 203 202 205 207 205 211 215 217 219 220 220 221 222 223 225 225 224 224 223 222 222 220 220 223 224 226 232 235 236 236 236 237 236 229 219 214 212
166 201 196 188 196 204 202 183 166 183 201 140 129 138 139 159 169 177 197 177 142 207 215 187 184 216 252 213 143 180 212 225 227 222 222 220 217 216 215 213 213 213 210 209 209 207 206 206 206 206 205 205 204 207 213 215 215 217 217 217 218 220 221 223 224 223 223 223 223 223 223 222 224 225 226 229 231 233 231 231 235 233 221 210 209 208
208 204 176 195 209 197 192 186 182 188 169 132 132 119 96 93 119 129 195 133 157 222 224 192 188 207 257 225 162 186 214 217 219 221 221 219 217 217 215 212 210 209 206 206 208 209 209 209 207 204 205 205 203 205 209 209 211 213 213 214 215 218 220 221 222 222 222 223 223 224 224 224 224 224 224 224 225 227 226 227 230 227 217 206 204 202
235 225 170 205 217 180 182 194 204 198 154 149 147 138 128 107 124 116 83 172 205 224 225 205 193 203 243 243 180 206 224 218 216 222 218 213 214 214 212 210 208 206 203 199 203 206 207 206 202 202 205 204 199 199 201 203 205 207 209 211 212 215 218 219 219 220 220 221 222 224 225 225 224 224 223 222 223 224 222 224 226 222 214 205 201 200
227 224 206 230 206 181 190 192 188 195 184 182 163 158 169 164 169 181 180 195 217 227 221 175 185 201 242 254 241 232 240 236 227 228 226 217 213 211 208 207 205 201 199 197 198 202 203 199 196 201 203 198 193 196 198 199 200 201 206 209 210 213 216 217 217 218 219 221 223 224 224 225 225 225 225 224 224 224 222 223 222 215 207 201 199 200
208 227 222 225 217 185 195 198 188 180 191 195 173 169 185 177 182 196 181 182 228 232 174 142 179 208 248 252 246 241 246 244 230 232 239 231 217 212 208 206 204 203 202 198 197 199 201 197 196 198 196 191 193 197 197 197 197 200 204 208 210 213 215 216 216 217 218 221 223 225 225 225 224 224 225 225 225 224 224 223 218 211 204 202 203 205
205 221 203 204 199 174 198 213 199 163 177 199 183 184 198 180 191 203 182 203 212 195 114 140 178 207 195 223 237 235 254 263 241 234 233 226 219 210 204 204 204 205 204 199 197 200 199 196 196 196 191 189 193 196 195 195 197 200 204 207 209 211 213 214 215 216 218 221 223 225 225 225 224 224 224 225 225 224 224 221 215 210 207 208 210 212
212 230 193 195 198 176 195 209 173 157 183 198 175 200 208 178 178 198 191 205 185 155 169 170 210 224 215 309 287 247 265 271 249 234 221 215 208 193 193 199 201 203 203 200 201 203 200 195 195 195 193 191 192 194 194 194 197 201 205 208 210 211 213 214 215 217 218 221 223 224 224 223 223 223 224 224 223 223 224 221 215 212 213 214 216 216
210 225 169 179 218 199 195 180 174 192 193 160 180 205 200 151 176 186 178 82 133 233 205 170 231 240 242 283 272 247 252 253 245 232 221 214 195 189 196 196 198 200 199 199 201 200 196 193 194 194 193 192 192 193 194 197 202 204 205 207 209 210 211 214 216 218 219 221 223 224 223 222 221 222 223 222 221 221 223 221 217 216 217 218 217 215
205 216 173 186 211 212 203 188 199 208 179 155 199 182 108 55 210 194 211 173 187 232 216 166 224 229 209 248 262 248 248 249 244 226 215 203 187 199 206 195 194 198 197 197 198 197 194 192 194 194 193 194 194 194 197 201 204 205 206 207 207 208 211 214 216 217 219 221 223 223 220 219 221 222 223 222 221 221 221 219 217 217 218 217 216 213
197 226 194 196 209 195 163 194 215 209 186 233 201 160 140 201 191 163 216 196 198 229 220 183 218 230 219 218 243 253 253 260 255 224 189 197 200 207 210 199 195 195 194 197 197 196 195 195 196 194 193 195 195 196 199 201 201 200 204 206 207 210 213 214 215 218 221 223 223 222 220 220 221 222 222 220 219 219 219 217 216 216 217 216 213 210
178 224 213 191 206 175 155 195 216 207 191 31 166 168 189 226 185 179 197 185 206 226 224 206 209 212 216 211 220 237 244 254 257 241 201 208 209 209 209 199 194 193 193 194 196 195 194 196 198 195 193 194 195 197 200 199 198 200 202 204 205 209 211 213 216 219 222 223 222 221 221 221 221 221 219 218 216 216 216 217 216 214 214 212 210 207
168 217 222 167 137 179 188 198 213 210 194 188 194 189 191 192 166 200 194 167 212 218 210 223 227 198 192 208 216 227 236 238 243 244 231 220 212 211 208 197 191 190 191 192 192 194 195 196 197 194 194 196 195 196 198 197 199 201 201 201 203 204 206 211 216 219 222 223 221 220 220 221 220 218 217 215 215 215 215 216 215 214 211 208 206 205
175 195 214 191 170 204 207 194 209 218 206 197 203 197 192 187 168 201 211 186 202 220 199 221 241 216 175 198 213 221 232 235 236 240 246 244 227 215 207 200 194 187 190 193 192 195 195 191 190 190 190 192 192 193 195 197 199 199 199 201 202 203 204 208 214 220 223 221 218 219 220 220 219 216 214 213 213 215 215 215 215 213 209 206 205 203
172 167 211 216 214 216 210 183 202 225 215 205 207 203 201 200 193 208 217 177 170 218 137 204 250 228 168 192 214 222 233 242 244 245 256 261 248 215 202 203 196 189 192 194 194 196 192 183 182 183 184 185 188 191 194 196 197 197 200 202 201 202 205 208 214 221 222 218 217 219 219 219 217 214 213 212 213 213 213 213 214 211 206 205 203 198
156 151 206 222 236 237 230 186 152 230 216 211 213 204 202 208 211 218 216 167 190 197 161 198 238 208 164 173 223 242 256 265 262 240 243 257 261 213 201 200 191 190 192 191 194 191 179 174 175 178 181 184 188 192 193 195 196 198 201 202 202 204 207 209 213 218 219 217 217 218 218 217 216 213 211 211 212 211 210 210 209 205 204 203 197 193
177 185 197 211 228 233 225 213 204 203 206 215 217 206 207 211 211 214 118 149 217 197 185 214 228 192 173 133 210 251 258 259 258 243 234 252 260 226 206 198 189 188 187 189 188 177 171 175 176 178 182 185 190 193 193 193 195 198 201 201 203 207 209 210 212 213 214 213 212 214 216 216 215 212 210 211 210 209 207 206 203 201 199 196 193 192
190 189 187 201 216 220 218 216 214 199 193 216 213 201 211 211 205 192 151 211 222 188 189 220 225 183 183 213 224 240 242 248 254 247 235 244 245 226 209 200 191 187 187 188 184 175 174 176 176 180 184 188 193 194 194 195 197 200 201 202 206 209 210 210 210 209 208 206 208 214 216 215 214 212 210 211 209 206 205 203 200 198 195 193 193 192
188 186 191 202 215 220 219 216 198 179 189 208 209 202 201 205 203 194 200 217 204 156 199 221 217 207 207 203 216 228 226 235 245 242 233 237 236 224 212 204 196 190 187 183 176 172 171 173 178 183 185 190 194 195 194 196 198 199 200 202 207 209 207 207 206 206 207 205 209 215 216 216 216 214 212 209 205 204 204 202 199 196 195 195 195 191
181 209 201 204 213 219 222 216 195 191 205 209 210 209 199 194 197 201 213 209 153 165 219 209 193 214 210 196 208 220 221 229 241 239 233 232 229 218 206 197 195 194 185 177 177 177 176 178 179 180 185 190 193 193 193 195 197 198 199 203 206 206 206 205 205 208 211 211 213 217 219 219 217 215 211 204 202 205 205 202 199 197 195 194 193 192
210 224 203 206 217 221 224 222 200 196 214 213 211 212 201 193 195 201 215 206 161 199 230 198 180 208 208 201 212 218 217 221 228 232 230 225 208 196 195 197 197 193 186 184 185 182 177 176 176 179 184 187 188 189 191 194 196 197 200 204 204 205 207 207 207 211 212 213 217 220 220 219 216 214 207 200 201 204 201 200 200 198 194 192 194 198
238 234 200 207 223 226 229 227 204 198 218 221 216 212 202 199 199 201 210 204 191 213 227 199 192 207 206 206 213 216 221 225 234 245 234 222 208 195 195 200 198 192 192 191 186 180 178 176 175 176 177 180 186 189 191 193 193 195 200 203 202 204 207 207 210 212 212 214 218 220 219 218 215 212 203 199 201 200 196 197 201 199 192 190 195 200
254 250 177 193 224 236 234 229 212 206 218 226 224 217 207 203 203 206 212 204 195 211 222 201 202 216 219 219 223 232 238 232 240 236 226 219 206 194 197 203 197 193 196 191 179 173 173 171 170 173 176 182 187 187 189 190 189 193 199 201 202 205 206 208 212 213 213 215 218 218 217 216 213 207 201 198 199 197 195 196 197 197 192 189 192 196
262 246 114 168 225 240 228 226 224 214 215 227 229 222 211 202 202 208 210 197 190 201 211 209 213 230 233 222 225 244 241 229 235 234 227 218 201 196 202 203 197 194 190 180 170 168 171 172 173 176 180 185 186 186 187 185 184 191 197 200 203 205 205 208 211 213 214 216 217 217 216 213 207 202 199 198 196 196 197 195 193 192 188 187 191 196
296 328 11 212 242 254 238 228 226 212 213 229 231 222 214 205 203 209 208 201 200 200 202 208 214 227 226 196 196 222 224 227 235 236 230 219 202 201 206 202 195 191 182 173 171 172 175 177 177 178 180 181 181 183 185 182 185 195 202 205 206 206 205 208 211 212 214 215 215 216 214 208 201 197 197 197 195 196 197 193 192 191 188 189 196 202
302 327 347 321 269 278 313 95 164 202 223 230 220 216 215 208 205 210 211 209 210 209 207 212 216 220 212 184 192 213 215 218 241 253 253 233 206 208 218 214 194 181 174 174 177 177 174 170 167 170 173 175 179 185 189 192 198 204 207 208 208 207 207 209 211 212 213 213 213 213 209 202 197 194 194 194 192 193 193 190 193 194 189 190 197 206
314 324 325 245 267 285 341 138 199 228 239 250 247 205 214 216 213 215 218 216 211 210 210 217 223 220 211 201 203 214 210 185 2 326 299 253 216 203 207 209 183 176 177 174 170 165 158 153 156 162 169 178 185 189 193 197 200 202 204 205 204 206 208 209 210 210 210 208 208 206 201 197 195 193 193 192 190 188 190 191 193 192 189 193 201 210
342 313 304 246 242 262 245 213 238 281 304 312 10 101 163 207 206 212 227 232 219 209 208 215 222 220 214 214 210 204 180 148 106 39 346 276 243 212 198 190 182 184 185 174 164 160 159 163 167 171 177 182 185 186 190 194 192 189 193 198 200 203 206 207 208 207 203 199 198 199 195 193 194 194 195 196 191 187 188 191 193 193 195 201 207 213
134 262 279 274 239 240 273 264 274 298 288 246 180 135 138 182 186 202 225 226 205 199 202 212 221 220 209 209 198 167 158 162 174 176 61 317 268 243 213 179 164 165 165 160 159 156 158 163 164 169 175 177 180 183 185 187 186 182 182 187 193 198 201 202 203 200 194 191 193 194 191 189 191 194 196 196 191 188 188 189 190 193 197 203 209 215
121 226 254 275 271 268 291 299 299 284 269 204 147 15 349 319 303 283 245 222 191 186 196 207 216 214 196 182 172 158 156 179 212 207 122 64 249 217 169 140 136 142 142 144 146 137 135 139 141 151 160 162 170 179 180 178 178 175 174 176 184 190 193 195 195 192 190 189 188 189 188 186 190 196 198 195 191 189 189 190 191 193 197 202 211 218
114 169 218 257 269 270 277 294 293 275 278 19 19 347 340 324 313 288 231 220 190 180 192 202 205 203 191 175 163 157 166 196 211 189 126 125 140 139 137 125 116 116 113 113 116 114 115 117 119 127 134 134 142 155 162 165 164 161 160 162 171 179 184 187 188 186 186 186 184 186 185 183 190 198 199 197 194 191 189 192 196 198 199 206 216 221
114 95 307 273 267 262 279 289 278 259 291 8 354 335 328 322 299 211 213 209 168 169 184 193 197 195 184 169 162 162 181 210 196 144 133 132 113 98 102 107 108 111 105 99 99 100 101 104 106 107 109 112 119 132 146 152 149 141 138 143 158 174 179 180 181 181 181 181 181 184 184 184 192 198 198 199 199 193 189 193 198 200 205 213 219 222
110 103 9 280 269 267 262 278 284 268 356 6 340 326 321 307 207 203 213 225 20 173 181 185 187 177 165 164 161 159 168 71 87 109 130 129 112 97 91 93 96 98 98 99 99 98 97 97 100 101 104 113 125 135 143 144 134 123 124 135 155 171 176 177 180 179 177 174 177 181 182 186 192 193 193 197 198 195 193 195 198 203 211 216 218 220
129 131 109 260 269 289 262 287 297 280 66 4 338 324 311 247 207 206 248 330 331 35 121 135 143 138 141 140 122 114 109 96 95 105 115 115 111 108 105 102 96 94 97 100 104 107 107 103 101 102 105 114 127 135 140 137 126 118 125 143 165 174 175 176 176 173 172 173 177 178 179 185 188 186 189 195 196 196 199 201 202 208 212 214 215 219
159 160 146 172 233 332 67 280 290 277 13 357 342 330 303 283 278 277 15 10 25 77 94 92 88 96 105 101 97 101 104 100 98 101 96 90 97 105 107 107 105 106 108 107 109 115 113 105 100 101 101 109 120 127 134 132 124 122 135 155 173 175 171 170 168 167 169 175 180 180 180 184 185 184 191 195 195 199 205 206 206 208 208 208 213 220
151 168 168 168 188 194 167 225 300 314 341 347 344 336 325 325 317 297 73 64 57 68 87 88 80 77 87 96 96 92 91 90 87 88 87 82 81 84 82 79 81 84 87 86 86 91 95 96 100 102 101 107 119 125 133 134 130 136 151 164 173 171 165 162 163 165 171 177 181 182 181 184 186 188 192 194 195 200 204 204 205 207 205 207 213 218
0 285 195 169 181 177 142 108 316 317 328 342 350 343 334 335 343 35 82 83 67 54 66 79 80 76 79 88 90 83 79 78 74 69 70 71 71 74 73 69 69 71 73 74 73 74 80 89 99 99 97 101 115 128 142 153 154 155 159 166 170 169 166 162 162 167 176 180 183 185 183 184 188 191 192 195 199 202 204 202 203 205 203 205 211 214
3 353 351 145 153 131 105 97 301 317 344 0 359 355 0 2 354 15 66 77 69 61 66 71 71 68 65 72 78 76 70 70 70 65 61 60 60 63 70 72 75 81 86 88 88 88 91 96 97 96 98 104 118 137 155 167 168 162 164 170 170 170 170 167 165 171 178 180 184 188 187 187 191 195 196 198 202 205 205 204 203 202 202 203 207 210
17 13 4 192 170 149 134 156 147 6 2 3 356 354 12 19 6 13 47 61 60 61 64 65 66 63 56 56 62 63 60 60 63 62 57 52 50 51 55 58 60 66 74 85 99 109 111 108 105 106 113 123 138 155 165 171 170 171 177 174 168 170 174 172 171 174 175 177 182 188 192 194 194 195 198 201 205 207 208 207 205 205 206 205 201 203
347 355 360 184 178 157 128 163 134 74 20 354 355 6 15 13 6 17 42 54 55 55 52 51 57 60 57 54 56 58 54 47 48 55 56 50 47 46 47 49 48 49 57 69 90 104 102 101 109 118 126 138 152 165 171 172 171 175 178 174 169 173 177 177 178 176 172 176 181 186 193 197 196 196 201 203 205 208 208 208 207 208 208 206 206 217
308 315 346 326 202 115 26 169 133 105 68 320 336 36 47 28 12 20 46 56 54 55 56 53 52 57 62 62 62 63 57 45 39 49 52 45 42 39 38 43 44 43 48 50 47 59 75 87 103 116 127 143 160 173 179 178 177 177 177 176 177 179 178 177 177 175 172 176 183 186 191 196 197 198 198 196 197 201 203 203 204 206 211 218 227 236
331 328 346 319 207 143 161 210 156 112 129 209 239 49 57 63 50 40 51 59 54 53 61 61 56 53 53 54 61 68 64 48 40 51 55 48 42 40 39 41 42 43 47 47 42 50 64 76 96 121 151 169 178 185 186 184 184 180 176 180 185 185 182 178 174 173 176 180 185 189 191 193 191 187 183 183 187 192 195 200 205 209 214 225 235 241
343 336 324 293 271 330 321 237 342 45 121 150 114 61 33 70 77 66 61 66 61 52 58 66 66 61 55 49 53 64 67 53 40 53 59 51 44 47 47 46 47 46 44 44 49 58 66 81 120 164 190 193 192 192 189 188 190 188 188 196 197 193 187 179 174 174 181 185 186 187 189 189 182 172 174 182 187 188 190 191 196 203 212 223 232 237
Height
751 763 767 764 763 761 759 757 757 760 762 765 771 775 775 778 781 776 774 770 768 784 788 782 784 782 782 785 784 783 783 785 786 787 787 787 788 788 789 789 790 790 790 791 794 796 798 800 802 804 805 807 808 809 811 812 813 815 816 818 819 821 823 824 826 827 829 830 831 832 832 833 834 835 836 837 837 838 839 840 841 841 842 842 843 844
754 764 763 755 754 753 754 754 756 761 765 766 770 775 776 777 778 773 773 770 767 782 788 782 787 786 783 785 783 783 785 785 783 784 785 785 786 786 786 787 786 786 787 789 792 793 796 798 799 802 803 804 806 807 808 810 811 813 814 816 817 819 821 822 823 825 826 827 828 829 830 831 833 834 834 835 836 837 838 839 839 840 840 841 842 842
763 762 755 750 751 752 756 757 757 761 765 767 769 774 779 776 778 777 773 770 769 781 786 785 789 787 782 783 782 781 782 781 777 778 780 782 784 784 783 784 784 785 787 787 788 789 792 794 796 799 800 801 803 804 806 807 809 811 812 814 815 817 818 819 821 822 824 825 826 828 829 830 832 832 833 834 834 836 836 837 838 838 839 840 841 841
767 758 748 749 753 755 761 762 760 762 764 766 768 774 779 775 779 782 777 772 771 776 781 785 789 785 782 783 781 778 777 777 776 776 776 778 779 779 777 778 780 782 784 784 785 785 788 791 793 795 796 798 800 802 803 805 807 808 809 811 813 815 816 817 819 820 822 824 825 827 828 829 830 831 832 833 833 834 835 836 836 837 838 839 839 840
758 750 744 750 755 754 761 764 762 764 767 767 765 769 773 772 773 774 775 775 775 778 778 783 795 789 780 785 781 775 775 776 776 775 776 775 774 774 774 775 776 777 778 780 781 781 783 786 788 790 792 795 797 798 800 801 803 805 806 808 810 812 814 815 817 818 821 822 824 826 827 828 829 830 830 831 832 832 833 834 835 835 836 837 838 839
752 747 745 751 756 754 758 763 760 760 767 770 765 761 763 766 768 771 775 778 788 794 779 782 807 798 778 781 778 773 777 777 775 775 775 774 772 773 774 773 773 772 773 775 776 777 778 780 784 786 789 792 793 794 796 798 800 802 804 806 808 810 811 813 815 817 819 820 822 823 825 826 827 828 828 828 829 830 831 832 833 834 835 836 837 837
750 746 746 750 754 755 757 760 756 753 764 772 761 755 758 760 765 772 775 779 792 796 776 774 798 798 781 778 774 771 776 775 773 774 771 770 770 769 769 769 768 769 769 770 771 772 774 777 780 782 785 787 788 790 792 795 797 799 801 803 805 807 809 811 812 814 816 818 819 821 822 823 824 825 825 826 828 829 830 831 831 833 833 834 835 836
747 749 752 750 751 755 757 757 753 750 761 766 753 750 759 761 765 770 771 776 781 782 780 776 784 794 788 776 769 770 775 777 774 771 768 765 764 763 763 763 763 764 764 766 768 769 770 772 774 777 779 781 783 786 789 791 793 795 798 800 802 805 806 808 810 812 813 815 816 818 819 820 821 822 823 824 826 827 828 829 830 831 832 832 833 834
743 749 752 751 754 755 750 747 747 748 755 756 748 750 755 757 761 762 765 772 774 781 795 788 784 800 795 774 771 772 775 778 772 765 762 758 758 757 757 757 756 757 758 760 762 764 765 767 770 772 774 777 780 783 785 787 790 792 795 798 799 802 804 805 807 809 811 812 814 815 816 818 819 820 822 823 824 826 826 828 828 829 830 831 832 833
740 742 741 745 751 750 744 742 742 745 750 749 748 752 754 756 759 762 765 771 779 790 797 789 785 800 793 771 773 780 777 773 762 755 753 750 751 751 750 751 752 753 754 755 757 759 761 763 765 768 771 774 777 779 781 784 787 790 792 795 797 799 801 803 804 806 808 810 811 813 813 815 816 818 820 821 822 823 824 826 827 827 828 829 831 832
735 734 735 739 741 739 738 742 741 740 742 744 749 755 762 767 766 770 772 773 791 800 789 780 778 789 790 769 764 771 763 753 749 748 746 744 745 745 744 746 747 749 751 752 754 756 758 760 763 766 769 771 773 776 779 782 784 787 789 792 794 796 798 800 801 803 805 807 808 809 810 812 814 816 818 819 820 821 822 823 825 826 827 828 830 831
738 738 738 734 732 732 736 743 742 740 740 743 749 756 768 778 777 783 786 784 802 805 783 772 772 784 792 769 752 750 741 736 739 740 738 738 738 737 738 740 741 743 746 748 752 753 755 758 761 764 765 767 770 773 775 778 781 784 786 789 791 793 794 796 798 800 802 804 805 806 808 810 811 813 815 816 817 819 820 821 822 824 825 827 828 830
742 738 736 732 729 729 737 746 747 746 745 744 749 757 774 790 794 799 801 798 803 795 778 774 776 785 785 759 744 744 737 732 731 727 726 728 729 731 732 734 735 737 740 743 747 749 751 753 755 758 761 764 767 769 772 775 778 781 783 785 787 789 791 793 795 797 799 800 802 803 805 807 809 810 812 814 815 816 817 819 820 821 823 825 826 827
750 741 735 736 733 726 731 743 750 752 750 747 749 756 771 789 802 809 809 807 802 787 776 775 779 786 778 752 738 736 729 722 721 721 721 722 725 727 728 730 732 734 736 738 740 743 745 747 749 752 756 759 763 766 769 772 774 777 779 781 783 785 787 789 792 794 795 797 798 800 802 804 806 807 810 811 812 813 815 816 818 820 821 823 824 825
757 754 737 734 734 726 727 731 734 741 746 744 739 745 759 768 782 795 798 798 793 783 782 784 783 781 771 748 730 725 720 715 716 717 717 720 722 723 724 727 730 732 733 734 735 737 738 740 744 747 750 754 758 761 765 768 771 773 775 776 779 781 783 786 788 790 791 793 795 796 798 800 802 805 806 807 808 810 812 814 817 818 820 821 822 823
752 749 727 723 724 722 726 723 720 732 745 743 734 743 753 748 754 772 779 776 775 780 786 787 778 762 749 736 722 720 720 716 714 713 715 718 718 720 724 724 725 727 727 729 730 732 733 735 739 743 746 750 754 758 761 763 766 767 770 772 774 777 780 782 784 786 787 789 791 792 794 796 799 801 802 803 805 808 811 813 815 817 818 819 820 822
750 744 722 721 724 718 720 719 718 728 739 743 744 747 743 732 738 762 778 776 775 782 781 777 770 755 746 737 720 718 722 716 713 713 713 715 716 719 721 719 720 721 721 723 725 726 728 730 734 737 741 746 749 753 756 757 759 761 764 767 770 774 776 778 780 782 784 786 787 788 790 793 795 797 799 801 804 807 809 812 813 815 816 817 819 820
736 738 722 719 726 718 711 715 716 714 721 738 745 737 733 737 739 751 773 782 785 786 777 772 767 757 758 750 725 719 724 716 711 710 711 713 715 717 715 713 714 714 715 717 719 721 723 725 729 732 736 740 743 747 749 751 754 757 761 764 767 770 772 774 776 779 781 782 783 784 787 790 792 794 796 799 802 805 807 809 811 812 813 815 816 818
723 736 728 715 719 715 710 719 725 715 712 725 727 719 728 750 755 757 768 777 785 787 777 773 769 758 756 747 728 722 721 713 707 706 710 713 712 711 709 708 709 709 711 714 715 718 721 722 725 728 732 736 739 742 744 748 752 755 758 761 764 766 768 771 774 775 777 777 779 781 783 786 789 791 794 797 800 802 804 806 808 809 811 813 815 816
717 733 734 718 714 715 715 723 729 724 719 720 721 719 724 735 743 749 752 755 768 778 776 775 774 760 744 733 725 721 714 708 705 704 707 708 705 704 703 703 706 707 708 709 711 714 715 717 720 724 728 731 734 738 741 745 749 752 755 757 760 763 766 768 770 771 772 773 775 778 781 783 785 788 791 794 797 799 801 803 804 806 808 810 812 814
713 727 733 724 718 721 722 721 719 719 722 726 728 731 732 730 732 738 741 741 749 763 770 773 771 753 729 718 717 713 706 701 700 699 699 698 696 697 696 697 700 702 703 705 706 708 710 712 716 720 725 728 731 735 738 743 746 748 751 754 756 759 762 764 766 766 767 768 772 775 778 780 782 785 788 791 793 796 797 799 801 803 805 807 809 812
713 723 728 726 725 724 718 708 705 705 709 717 723 726 727 728 733 744 751 746 740 748 756 760 761 742 714 706 707 703 699 695 693 695 695 691 690 692 692 693 695 697 699 700 701 703 705 708 712 717 721 725 729 732 735 739 742 745 748 750 752 755 758 760 761 761 762 765 769 772 774 776 779 782 785 787 790 792 795 797 799 802 804 806 808 810
703 716 724 723 718 714 706 700 701 701 699 704 710 712 714 717 724 738 750 747 743 746 745 748 755 734 702 696 702 697 694 691 691 695 695 689 687 689 691 691 692 694 695 696 697 699 702 705 709 714 718 721 724 727 731 734 737 741 743 746 749 751 753 755 756 756 759 763 767 768 771 773 776 779 782 784 787 789 792 794 797 800 803 805 807 809
701 714 724 725 715 706 702 700 701 701 702 707 706 704 707 711 711 716 727 733 737 742 743 751 758 734 699 695 701 697 695 694 693 694 695 691 686 687 690 690 691 693 693 694 696 697 700 704 707 711 715 718 721 724 728 731 734 737 740 743 746 748 749 751 752 754 757 760 763 765 768 770 772 776 778 781 783 786 789 792 795 799 802 804 806 807
704 714 721 730 734 728 722 718 714 711 709 709 707 703 703 705 707 711 720 730 734 732 731 744 751 728 700 697 701 700 700 698 694 691 692 692 688 687 689 688 690 692 692 694 696 697 699 702 705 708 711 714 717 721 724 728 731 734 736 739 742 744 746 748 750 752 754 757 760 762 764 766 769 771 774 776 780 782 785 788 791 795 798 800 802 802
700 709 712 725 738 741 738 730 719 713 711 708 706 706 705 704 707 714 723 735 738 731 725 731 733 718 701 697 699 700 701 699 693 689 689 690 688 687 687 688 688 690 691 693 694 696 698 700 703 705 708 711 714 718 721 724 728 731 733 736 738 741 743 745 747 749 751 754 757 758 760 762 764 767 769 771 775 778 781 784 787 790 793 795 797 798
697 702 702 708 715 716 716 711 701 700 707 710 707 706 706 705 705 710 721 728 729 731 729 722 718 715 707 700 697 697 698 696 689 685 685 685 684 685 685 686 687 688 689 691 692 695 697 699 701 703 706 709 712 715 718 721 725 728 730 733 736 738 741 743 744 746 749 751 753 754 755 757 759 761 764 767 772 777 779 781 785 787 789 792 794 795
698 702 696 697 698 694 692 693 692 694 698 701 702 701 702 702 703 709 716 713 713 727 731 716 711 715 707 697 694 693 693 693 687 683 681 679 679 682 684 686 687 687 688 690 691 693 695 697 699 701 704 707 710 713 716 720 723 726 728 731 733 736 738 740 741 743 745 748 749 750 751 753 756 758 762 766 771 774 776 778 782 784 787 791 793 794
694 698 691 691 693 688 684 684 688 692 691 689 692 694 695 698 701 705 707 703 705 716 717 708 709 711 700 691 689 686 685 684 680 675 675 675 677 680 683 686 685 685 687 688 688 689 691 694 696 698 701 704 708 711 714 718 721 723 726 728 730 733 735 736 737 739 742 744 744 746 748 751 754 758 761 765 767 768 771 776 781 782 784 788 791 792
690 692 687 689 691 686 683 683 685 690 691 688 687 686 687 690 694 695 696 695 698 701 697 697 703 702 690 682 678 674 675 676 674 673 674 675 675 678 681 683 682 682 683 683 684 685 687 690 692 695 699 702 705 708 711 714 717 720 723 725 728 730 731 732 734 736 738 740 741 743 746 749 752 756 759 761 763 765 767 773 778 780 780 783 786 789
688 692 689 688 692 690 683 681 684 688 691 690 687 683 682 685 688 690 689 689 694 698 693 694 702 699 683 673 671 671 674 677 677 676 675 673 673 676 679 678 677 677 678 679 681 683 685 688 691 693 696 699 701 704 707 710 714 717 720 722 724 726 728 730 732 733 735 736 738 741 744 746 749 752 755 758 760 763 764 766 771 775 777 779 781 784
687 691 689 689 697 694 681 682 685 684 687 691 687 683 683 685 688 687 686 686 691 695 697 699 704 696 678 670 673 675 676 678 677 674 672 671 671 672 674 674 673 674 675 677 679 682 684 686 688 691 692 695 697 701 704 708 712 715 717 719 721 723 725 727 728 730 732 734 736 739 740 743 746 749 753 755 758 761 762 764 768 771 772 775 778 781
690 690 689 692 700 693 682 682 683 685 700 703 687 677 679 681 682 682 682 682 681 683 690 695 691 679 668 668 674 677 676 676 673 668 667 667 667 668 667 667 668 669 671 674 676 678 680 681 683 685 688 690 694 697 701 705 708 711 712 714 717 719 721 723 725 727 729 731 734 736 738 742 745 747 750 753 756 759 762 765 770 772 770 772 776 780
696 692 692 695 699 696 687 683 687 700 712 697 670 661 666 670 674 678 677 676 673 671 673 674 670 665 664 668 671 671 669 668 666 663 662 662 664 666 665 664 666 667 668 671 672 674 675 677 679 683 685 689 692 695 699 702 704 706 709 712 714 717 719 721 723 725 727 729 732 734 737 741 743 746 748 751 755 758 761 765 769 771 772 773 776 779
700 697 696 696 697 696 690 691 705 712 696 671 658 658 660 659 661 666 666 663 664 666 665 666 664 661 661 662 661 661 661 662 663 663 662 662 662 662 664 665 667 668 669 669 670 672 674 676 679 682 685 688 691 694 697 699 702 705 707 710 713 715 717 719 721 722 725 728 730 733 736 739 742 744 747 749 753 756 760 763 764 767 770 773 775 777
701 703 699 696 696 696 694 699 709 701 676 662 664 663 661 662 663 667 671 665 660 661 663 664 661 656 656 659 659 660 661 661 663 664 662 662 660 658 659 661 662 665 667 666 667 669 672 674 677 680 683 686 689 692 695 697 700 703 706 708 711 713 715 717 719 721 724 727 729 732 734 737 741 743 744 747 750 753 757 759 760 762 766 770 773 775
694 702 700 697 696 696 697 697 693 686 677 671 669 664 662 664 663 666 670 663 654 655 658 658 656 654 657 661 661 661 662 663 666 665 660 659 660 657 655 655 656 660 663 665 666 668 669 672 675 678 682 685 689 692 693 696 698 701 704 707 710 712 714 716 718 720 723 725 728 730 732 735 738 741 743 745 748 751 753 755 758 760 764 767 770 772
688 696 697 700 699 695 697 699 696 696 689 675 666 663 661 662 660 660 664 661 652 651 654 653 654 655 656 660 662 661 663 669 671 664 658 658 658 656 655 654 654 657 660 664 666 668 670 673 676 679 683 686 690 692 693 695 698 701 704 706 709 711 713 715 717 719 722 724 726 728 731 733 736 738 741 743 745 747 750 753 757 759 762 765 768 769
689 693 692 696 698 695 698 702 704 701 687 671 667 665 662 662 660 661 670 665 649 646 650 650 651 653 652 655 658 659 664 671 668 659 656 657 656 655 655 655 656 658 661 664 667 669 672 675 677 681 684 688 691 692 693 695 698 701 704 707 709 711 712 714 717 718 721 723 725 727 729 732 734 736 738 741 742 745 749 752 755 758 760 763 766 767
691 695 696 696 696 697 700 701 697 688 677 670 670 668 663 661 662 671 681 667 643 641 648 647 647 650 650 651 654 656 661 663 658 654 654 655 654 655 656 657 659 661 662 665 668 670 673 676 679 683 686 688 690 691 693 696 699 702 704 707 709 711 713 715 716 718 720 722 724 727 729 730 732 735 737 739 741 744 748 751 753 756 759 761 763 765
693 697 705 706 699 697 702 701 692 681 674 673 673 668 664 664 668 676 676 658 644 644 645 642 644 647 648 650 651 653 657 656 652 653 654 653 654 657 658 659 661 662 663 666 669 671 675 678 681 683 686 688 690 692 694 696 698 701 704 706 709 712 713 714 716 717 719 721 724 726 728 729 731 734 737 739 741 744 747 750 752 755 757 759 761 762
694 699 708 712 704 700 701 701 696 686 676 675 674 666 663 669 672 667 659 652 649 646 642 642 645 645 647 650 650 652 656 654 653 655 656 655 655 657 659 661 662 663 665 668 670 673 676 679 682 684 687 689 691 694 695 696 698 701 704 707 710 712 713 714 715 716 718 721 723 725 727 728 731 734 736 738 740 743 746 749 752 754 756 758 759 760
683 691 706 711 706 705 707 706 704 696 681 675 676 670 667 670 667 658 655 654 649 644 642 645 646 647 650 653 653 654 655 655 656 658 659 659 659 659 661 663 664 666 668 670 672 673 674 678 682 685 688 690 693 696 697 698 699 701 704 708 710 712 713 714 715 716 718 720 723 724 726 728 730 733 735 736 738 742 744 747 750 752 754 756 758 759
675 683 698 702 699 703 709 706 701 694 683 678 682 680 674 669 663 657 657 655 650 647 646 647 649 650 651 653 655 657 658 660 662 661 661 663 663 663 664 666 667 669 670 670 672 673 674 678 682 685 688 691 693 695 698 700 701 703 705 708 709 710 712 713 715 717 718 720 722 724 726 728 730 732 733 734 737 741 743 746 749 751 752 754 756 758
681 681 685 688 688 693 698 696 691 688 684 680 679 678 673 667 662 658 656 655 654 651 648 649 652 652 650 652 655 657 660 663 664 663 664 666 665 665 667 668 669 671 672 673 674 675 677 681 684 687 689 691 693 695 698 700 702 704 705 706 708 709 711 713 715 716 718 719 721 723 725 727 729 730 731 733 736 739 742 745 748 749 750 752 754 755
682 679 678 682 687 688 688 690 691 690 686 680 676 674 671 669 666 661 656 656 656 653 651 652 654 654 653 654 655 658 663 664 664 666 668 668 668 668 668 670 673 674 676 676 677 679 681 684 686 688 690 693 695 697 699 701 702 703 704 705 707 709 711 712 714 716 717 719 720 722 724 726 728 729 731 733 735 738 741 744 746 747 749 751 752 753
680 679 680 682 686 688 688 691 693 691 687 683 680 677 673 672 671 666 661 660 658 656 654 654 655 657 658 657 659 664 666 666 667 669 670 671 672 672 671 674 677 678 679 679 679 681 683 684 686 689 691 694 696 698 700 701 702 703 704 706 707 709 711 712 713 715 716 718 719 722 724 725 727 729 730 732 735 737 740 742 744 746 747 749 751 752
686 684 685 685 687 689 689 688 688 689 689 686 682 680 677 676 675 670 664 662 661 660 660 659 658 659 661 662 665 668 670 671 673 674 674 675 675 675 675 677 679 680 682 684 684 684 684 684 686 689 692 694 697 698 700 701 702 703 705 706 708 709 710 712 713 714 715 717 719 721 723 725 727 728 730 731 733 736 738 740 742 745 746 747 748 750
690 690 691 689 690 693 693 689 685 688 693 692 686 682 679 678 679 675 667 664 664 666 667 666 665 665 666 667 669 670 674 678 677 677 678 679 679 679 679 679 680 682 684 686 687 687 686 687 689 692 694 696 697 699 700 701 702 704 705 705 707 708 710 712 712 713 714 716 718 721 722 724 726 727 729 731 733 734 736 738 741 743 744 746 747 748
693 695 696 693 693 693 692 687 681 683 691 694 689 685 681 679 680 679 673 669 670 672 673 673 673 672 671 671 671 674 679 682 681 681 682 683 683 683 683 682 684 685 685 687 689 689 690 691 692 694 696 697 698 699 700 701 702 703 704 705 707 708 710 711 711 713 714 716 718 721 722 724 725 727 728 731 733 734 736 738 740 742 743 744 745 746
697 699 699 697 697 692 685 681 680 682 688 691 688 687 684 679 680 683 681 677 677 678 677 677 678 679 679 679 678 678 682 685 686 684 685 686 687 686 686 686 686 687 688 689 690 691 692 694 695 696 698 698 699 699 700 701 702 703 705 706 708 709 709 710 711 713 714 716 718 720 721 723 725 726 728 730 732 734 736 737 739 740 741 743 744 745